This is the latest recevied weather packets stored in our database for station/object K7KAZ. If no packets are shown the sender has not sent any weather packets the latest 1 day(s).
| Time | Temp. | Humidity | Pressure | Rain* | Wind** | Luminosity | Snow |
|---|---|---|---|---|---|---|---|
| 1778036928 | 21.67° C | 30% | 1014 hPa | 0 mm | - | 0 W/m² | - |
| 1778036626 | 21.67° C | 30% | 1013.8 hPa | 0 mm | - | 0 W/m² | - |
| 1778036019 | 21.67° C | 30% | 1013.6 hPa | 0 mm | - | 0 W/m² | - |
| 1778035716 | 21.67° C | 30% | 1013.4 hPa | 0 mm | - | 0 W/m² | - |
| 1778035413 | 21.67° C | 30% | 1013.5 hPa | 0 mm | - | 0 W/m² | - |
| 1778035109 | 21.67° C | 29% | 1013.5 hPa | 0 mm | - | 0 W/m² | - |
| 1778034806 | 21.67° C | 29% | 1013.4 hPa | 0 mm | - | 0 W/m² | - |
| 1778034502 | 21.67° C | 29% | 1013.5 hPa | 0 mm | - | 0 W/m² | - |
| 1778034200 | 21.67° C | 29% | 1013.3 hPa | 0 mm | - | 0 W/m² | - |
| 1778033899 | 22.22° C | 29% | 1013.2 hPa | 0 mm | - | 0 W/m² | - |
| 1778033595 | 22.22° C | 29% | 1013 hPa | 0 mm | - | 0 W/m² | - |
| 1778032081 | 22.78° C | 29% | 1012.6 hPa | 0 mm | - | 21 W/m² | - |
| 1778031778 | 22.78° C | 29% | 1012.7 hPa | 0 mm | - | 26 W/m² | - |
| 1778031474 | 22.78° C | 29% | 1012.8 hPa | 0 mm | - | 23 W/m² | - |
| 1778031172 | 22.78° C | 29% | 1012.6 hPa | 0 mm | - | 40 W/m² | - |
| 1778030868 | 22.78° C | 29% | 1012.6 hPa | 0 mm | - | 55 W/m² | - |
| 1778030565 | 23.33° C | 29% | 1012.5 hPa | 0 mm | - | 67 W/m² | - |
| 1778030263 | 22.78° C | 29% | 1012.6 hPa | 0 mm | - | 73 W/m² | - |
| 1778029657 | 23.33° C | 28% | 1012.4 hPa | 0 mm | - | 106 W/m² | - |
| 1778029354 | 23.33° C | 28% | 1012.3 hPa | 0 mm | - | 114 W/m² | - |
| 1778028748 | 23.33° C | 28% | 1012.3 hPa | 0 mm | - | 131 W/m² | - |
| 1778028444 | 23.33° C | 28% | 1012.2 hPa | 0 mm | - | 191 W/m² | - |
| 1778027534 | 23.33° C | 27% | 1012.1 hPa | 0 mm | - | 57 W/m² | - |
| 1778027230 | 23.33° C | 27% | 1012.2 hPa | 0 mm | - | 64 W/m² | - |
| 1778026927 | 23.33° C | 26% | 1012.2 hPa | 0 mm | - | 276 W/m² | - |
* Rain latest hour (hover to see other rain measurements)
** Current wind speed in m/s (hover to see current wind gust speed)